Location: Courcelles
(49.2596°N, 1.7419°E)
Time: 20:24:32
(UTC+00:00)

Cosmos 2344 - Pass Details

Date: 17 November 2025
Orbit: 1197 x 3045 km, 63.3° (Epoch: 10 December)

Event Time Altitude Azimuth Distance (km) Brightness Sun altitude
Rises 18:32:02 0° 316° (NW) 4,178 6.9 -23.1°
Reaches altitude 10° 18:34:33 10° 318° (NW) 3,286 6.2 -23.5°
Maximum altitude 18:42:23 77° 45° (NE) 1,542 3.8 -24.8°
Enters shadow 18:47:33 33° 126° (SE) 2,608 4.7 -25.6°
